Time,TemperatureF,DewpointF,PressureIn,WindDirection,WindDirectionDegrees,WindSpeedMPH,WindSpeedGustMPH,Humidity,HourlyPrecipIn,Conditions,Clouds,dailyrainin,SolarRadiationWatts/m^2,SoftwareType,DateUTC
2013-08-06 07:01:00,49.0,48.0,29.97,SE,129,0.0,2.0,98,0.00,,,0.00,7.000000,,2013-08-06 14:01:00,
2013-08-06 07:11:00,49.0,48.0,29.97,SE,136,1.0,2.0,98,0.00,,,0.00,14.000000,,2013-08-06 14:11:00,
2013-08-06 07:21:00,49.0,48.0,29.97,SE,136,1.0,2.0,98,0.00,,,0.00,14.000000,,2013-08-06 14:21:00,
2013-08-06 07:32:00,49.0,48.0,29.97,SSE,153,1.0,2.0,98,0.00,,,0.00,26.000000,,2013-08-06 14:32:00,
2013-08-06 07:42:00,49.0,48.0,29.97,SSE,149,0.0,2.0,98,0.00,,,0.00,44.000000,,2013-08-06 14:42:00,
2013-08-06 07:53:00,49.0,48.0,29.97,SSE,149,0.0,1.0,98,0.00,,,0.00,54.000000,,2013-08-06 14:53:00,
2013-08-06 08:02:00,49.0,48.0,29.97,SSE,149,0.0,1.0,98,0.00,,,0.00,54.000000,,2013-08-06 15:02:00,
2013-08-06 08:11:00,49.0,48.0,29.98,SE,142,1.0,2.0,98,0.00,,,0.00,63.000000,,2013-08-06 15:11:00,
2013-08-06 08:33:00,50.0,49.0,29.98,SE,144,1.0,3.0,98,0.00,,,0.00,53.000000,,2013-08-06 15:33:00,
2013-08-06 08:43:00,50.0,49.0,29.99,SSE,153,1.0,4.0,98,0.00,,,0.00,91.000000,,2013-08-06 15:43:00,
2013-08-06 08:52:00,50.0,49.0,29.99,SSE,153,1.0,4.0,98,0.00,,,0.00,91.000000,,2013-08-06 15:52:00,
2013-08-06 09:01:00,50.0,49.0,29.99,SSE,153,1.0,4.0,98,0.00,,,0.00,91.000000,,2013-08-06 16:01:00,
2013-08-06 09:11:00,51.0,50.0,29.99,SE,130,0.0,1.0,98,0.00,,,0.00,128.000000,,2013-08-06 16:11:00,
2013-08-06 09:32:00,51.0,50.0,30.00,SE,136,1.0,3.0,98,0.00,,,0.00,171.000000,,2013-08-06 16:32:00,
2013-08-06 09:42:00,51.0,50.0,30.00,SE,146,1.0,4.0,98,0.00,,,0.00,211.000000,,2013-08-06 16:42:00,
2013-08-06 09:52:00,51.0,50.0,30.00,SE,146,1.0,4.0,98,0.00,,,0.00,211.000000,,2013-08-06 16:52:00,
2013-08-06 10:01:00,52.0,51.0,30.00,South,186,1.0,4.0,98,0.00,,,0.00,188.000000,,2013-08-06 17:01:00,
2013-08-06 10:11:00,52.0,51.0,30.00,SSE,154,2.0,4.0,98,0.00,,,0.00,267.000000,,2013-08-06 17:11:00,
2013-08-06 10:21:00,52.0,51.0,30.00,SSE,154,2.0,4.0,98,0.00,,,0.00,267.000000,,2013-08-06 17:21:00,
2013-08-06 10:32:00,53.0,52.0,30.00,SE,137,1.0,5.0,97,0.00,,,0.00,246.000000,,2013-08-06 17:32:00,
2013-08-06 10:43:00,53.0,52.0,30.00,SSE,162,2.0,4.0,95,0.00,,,0.00,250.000000,,2013-08-06 17:43:00,
2013-08-06 10:52:00,53.0,52.0,30.00,SSE,162,2.0,4.0,95,0.00,,,0.00,250.000000,,2013-08-06 17:52:00,
2013-08-06 11:01:00,54.0,52.0,30.00,SE,140,2.0,4.0,94,0.00,,,0.00,316.000000,,2013-08-06 18:01:00,
2013-08-06 11:11:00,54.0,52.0,30.01,SSE,152,2.0,5.0,93,0.00,,,0.00,345.000000,,2013-08-06 18:11:00,
2013-08-06 11:21:00,54.0,52.0,30.01,SSE,152,2.0,5.0,93,0.00,,,0.00,345.000000,,2013-08-06 18:21:00,
2013-08-06 11:32:00,55.0,52.0,30.00,SSE,153,2.0,5.0,91,0.00,,,0.00,383.000000,,2013-08-06 18:32:00,
2013-08-06 11:43:00,55.0,52.0,30.00,SSE,153,2.0,5.0,91,0.00,,,0.00,383.000000,,2013-08-06 18:43:00,
2013-08-06 11:52:00,55.0,52.0,30.00,SSE,153,2.0,5.0,91,0.00,,,0.00,383.000000,,2013-08-06 18:52:00,
2013-08-06 12:01:00,59.0,54.0,30.00,SE,127,3.0,7.0,84,0.00,,,0.00,828.000000,,2013-08-06 19:01:00,
2013-08-06 12:11:00,61.0,55.0,30.00,SSE,157,2.0,9.0,80,0.00,,,0.00,826.000000,,2013-08-06 19:11:00,
2013-08-06 12:32:00,64.0,55.0,30.00,South,173,2.0,5.0,73,0.00,,,0.00,933.000000,,2013-08-06 19:32:00,
2013-08-06 12:42:00,64.0,54.0,30.00,South,182,2.0,8.0,70,0.00,,,0.00,933.000000,,2013-08-06 19:42:00,
2013-08-06 13:01:00,65.0,54.0,29.99,SSE,163,2.0,4.0,68,0.00,,,0.00,997.000000,,2013-08-06 20:01:00,
2013-08-06 13:22:00,66.0,54.0,29.99,SE,142,3.0,8.0,66,0.00,,,0.00,995.000000,,2013-08-06 20:22:00,
2013-08-06 13:32:00,68.0,54.0,29.98,SSE,161,2.0,8.0,61,0.00,,,0.00,940.000000,,2013-08-06 20:32:00,
2013-08-06 13:43:00,68.0,54.0,29.98,SSE,161,2.0,8.0,61,0.00,,,0.00,940.000000,,2013-08-06 20:43:00,
2013-08-06 13:52:00,68.0,54.0,29.98,SSE,161,2.0,8.0,61,0.00,,,0.00,940.000000,,2013-08-06 20:52:00,
2013-08-06 14:01:00,68.0,54.0,29.98,SSE,161,2.0,8.0,61,0.00,,,0.00,940.000000,,2013-08-06 21:01:00,
2013-08-06 14:32:00,69.0,55.0,29.97,SW,217,2.0,10.0,61,0.00,,,0.00,353.000000,,2013-08-06 21:32:00,
2013-08-06 14:43:00,70.0,55.0,29.97,South,186,3.0,6.0,60,0.00,,,0.00,984.000000,,2013-08-06 21:43:00,
2013-08-06 15:01:00,71.0,54.0,29.97,SE,134,2.0,7.0,56,0.00,,,0.00,926.000000,,2013-08-06 22:01:00,
2013-08-06 15:11:00,70.0,55.0,29.97,SE,136,4.0,9.0,58,0.00,,,0.00,937.000000,,2013-08-06 22:11:00,
2013-08-06 15:21:00,70.0,55.0,29.97,SE,136,4.0,9.0,58,0.00,,,0.00,937.000000,,2013-08-06 22:21:00,
2013-08-06 15:32:00,70.0,55.0,29.97,SE,136,4.0,9.0,58,0.00,,,0.00,937.000000,,2013-08-06 22:32:00,
2013-08-06 15:43:00,70.0,55.0,29.96,SW,219,2.0,11.0,59,0.00,,,0.00,849.000000,,2013-08-06 22:43:00,
2013-08-06 16:01:00,70.0,54.0,29.96,SSW,194,4.0,8.0,57,0.00,,,0.00,798.000000,,2013-08-06 23:01:00,
2013-08-06 16:11:00,69.0,55.0,29.96,SE,127,5.0,10.0,60,0.00,,,0.00,380.000000,,2013-08-06 23:11:00,
2013-08-06 16:32:00,69.0,55.0,29.96,SSE,153,3.0,10.0,60,0.00,,,0.00,715.000000,,2013-08-06 23:32:00,
2013-08-06 16:42:00,69.0,55.0,29.96,East,88,2.0,9.0,60,0.00,,,0.00,687.000000,,2013-08-06 23:42:00,
2013-08-06 16:52:00,68.0,54.0,29.96,South,176,4.0,11.0,61,0.00,,,0.00,272.000000,,2013-08-06 23:52:00,
2013-08-06 17:01:00,68.0,54.0,29.96,South,176,4.0,11.0,61,0.00,,,0.00,272.000000,,2013-08-07 00:01:00,
2013-08-06 17:11:00,66.0,54.0,29.96,SE,138,4.0,10.0,65,0.00,,,0.00,707.000000,,2013-08-07 00:11:00,
2013-08-06 17:21:00,67.0,54.0,29.96,SSW,194,5.0,9.0,63,0.00,,,0.00,628.000000,,2013-08-07 00:21:00,
2013-08-06 17:32:00,67.0,54.0,29.96,SSW,194,5.0,9.0,63,0.00,,,0.00,628.000000,,2013-08-07 00:32:00,
2013-08-06 17:43:00,67.0,54.0,29.96,SSW,194,5.0,9.0,63,0.00,,,0.00,628.000000,,2013-08-07 00:43:00,
2013-08-06 18:01:00,66.0,54.0,29.96,ENE,77,4.0,11.0,66,0.00,,,0.00,137.000000,,2013-08-07 01:01:00,
2013-08-06 18:11:00,63.0,53.0,29.96,East,101,2.0,6.0,69,0.00,,,0.00,60.000000,,2013-08-07 01:11:00,
2013-08-06 18:21:00,63.0,53.0,29.96,East,101,2.0,6.0,69,0.00,,,0.00,60.000000,,2013-08-07 01:21:00,
2013-08-06 18:32:00,63.0,54.0,29.96,WSW,250,3.0,10.0,72,0.00,,,0.00,343.000000,,2013-08-07 01:32:00,
2013-08-06 18:43:00,63.0,53.0,29.97,SW,227,4.0,9.0,71,0.00,,,0.00,267.000000,,2013-08-07 01:43:00,
2013-08-06 19:02:00,61.0,53.0,29.97,SE,132,2.0,8.0,75,0.00,,,0.00,236.000000,,2013-08-07 02:02:00,
2013-08-06 19:11:00,60.0,53.0,29.97,ESE,123,2.0,11.0,77,0.00,,,0.00,91.000000,,2013-08-07 02:11:00,
2013-08-06 19:33:00,59.0,52.0,29.97,ESE,106,2.0,9.0,78,0.00,,,0.00,62.000000,,2013-08-07 02:33:00,
2013-08-06 19:43:00,59.0,53.0,29.97,ESE,105,3.0,8.0,80,0.00,,,0.00,62.000000,,2013-08-07 02:43:00,
2013-08-06 19:52:00,57.0,52.0,29.97,ESE,121,3.0,8.0,84,0.00,,,0.00,19.000000,,2013-08-07 02:52:00,
2013-08-06 19:53:00,57.0,52.0,29.97,SSE,156,3.0,7.0,82,0.00,,,0.00,40.000000,,2013-08-07 02:53:00,
2013-08-06 20:01:00,57.0,52.0,29.97,SSE,156,3.0,7.0,82,0.00,,,0.00,40.000000,,2013-08-07 03:01:00,
2013-08-06 20:11:00,57.0,52.0,29.97,ESE,121,3.0,8.0,84,0.00,,,0.00,19.000000,,2013-08-07 03:11:00,
2013-08-06 20:22:00,57.0,52.0,29.97,ESE,121,3.0,8.0,84,0.00,,,0.00,19.000000,,2013-08-07 03:22:00,
2013-08-06 20:32:00,57.0,52.0,29.97,ESE,121,3.0,8.0,84,0.00,,,0.00,19.000000,,2013-08-07 03:32:00,
2013-08-06 20:43:00,57.0,52.0,29.97,ESE,121,3.0,8.0,84,0.00,,,0.00,19.000000,,2013-08-07 03:43:00,